{"data":{"norad_id":54383,"epoch":"2026-09-20T21:36:08.245152Z","epoch_age_seconds":127738,"freshness":"FRESH","line1":"1 54383U 22163C   26263.90009543 -.00000013  00000+0  44173-4 0  9993","line2":"2 54383  67.1418 229.0079 0009490 325.9463  34.1012 13.97722596193943","mean_motion":13.97722596,"eccentricity":0.000949,"inclination_deg":67.1418,"raan_deg":229.0079,"arg_perigee_deg":325.9463,"mean_anomaly_deg":34.1012,"bstar":4.4173e-5,"rev_number":19394,"period_min":103.02473495964,"perigee_km":894.78354005288,"apogee_km":908.60065568063,"semimajor_km":7279.8290978668,"source":"CELESTRAK","updated_at":"2026-09-22T09:00:25.146461Z"}}